Location: Unspecified
(45.7810°N, 0.0000°E)
Time: 08:23:21
(UTC+00:00)

ISS - Visible Passes

Search period start: 22 July 2019 00:00
Search period end: 01 August 2019 00:00
Orbit: 409 x 418 km, 51.6° (Epoch: 22 July)

Date Brightness Start Highest point End Pass type
(mag) Time Alt. Az. Time Alt. Az. Time Alt. Az.
22 Jul -1.0 01:01:53 10° WNW 01:02:10 12° WNW 01:02:10 12° WNW visible
22 Jul -2.2 20:58:27 10° W 21:01:36 38° NNW 21:04:46 10° NE visible
22 Jul -1.8 22:35:51 10° WNW 22:38:51 29° N 22:41:13 14° ENE visible
23 Jul -1.7 00:12:36 10° WNW 00:14:00 23° NW 00:14:00 23° NW visible
23 Jul -1.7 21:46:26 10° WNW 21:49:23 28° N 21:52:20 10° ENE visible
23 Jul -2.5 23:23:19 10° NW 23:25:59 41° NNW 23:25:59 41° NNW visible
24 Jul -1.8 20:56:55 10° WNW 20:59:55 29° N 21:02:55 10° ENE visible
24 Jul -2.4 22:34:01 10° NW 22:37:09 37° NNE 22:38:04 30° NE visible
25 Jul -0.9 00:10:41 10° WNW 00:10:52 11° WNW 00:10:52 11° WNW visible
25 Jul -2.0 20:07:22 10° WNW 20:10:27 33° NNW 20:13:32 10° NE visible
25 Jul -2.1 21:44:39 10° NW 21:47:42 31° N 21:50:11 13° ENE visible
25 Jul -1.9 23:21:20 10° WNW 23:22:59 27° WNW 23:22:59 27° WNW visible
26 Jul -1.9 20:55:14 10° WNW 20:58:13 29° N 21:01:11 10° ENE visible
26 Jul -3.3 22:32:00 10° WNW 22:35:08 58° N 22:35:08 58° N visible
27 Jul -2.8 21:42:40 10° NW 21:45:54 43° NNE 21:47:20 26° ENE visible
27 Jul -1.2 23:19:26 10° WNW 23:20:08 15° WNW 23:20:08 15° WNW visible
28 Jul -2.4 20:53:19 10° NW 20:56:26 35° NNE 20:59:32 10° E visible
28 Jul -2.8 22:30:00 10° WNW 22:32:21 41° W 22:32:21 41° W visible
29 Jul -2.1 20:03:54 10° WNW 20:06:56 30° N 20:09:58 10° ENE visible
29 Jul -3.8 21:40:36 10° WNW 21:43:57 79° NNE 21:44:35 55° ESE visible
30 Jul -3.2 20:51:15 10° WNW 20:54:32 54° NNE 20:56:51 18° E visible
30 Jul -1.7 22:28:09 10° W 22:29:41 20° W 22:29:41 20° W visible
31 Jul -2.7 20:01:52 10° NW 20:05:03 41° NNE 20:08:15 10° E visible
31 Jul -3.4 21:38:34 10° WNW 21:41:48 46° SW 21:41:58 45° SSW visible
